CW2840 Weather Reports


time (UTC)temp
F
wind
direction
speed
knots
gust
knots
rain 1hr
in
rain 24hr
in
rain mn
in
humidity
%
barometer
mb
20260509193217 86 266 3.5 6.1 0.00 0.00 0.00 67 1009.0
20260509191714 86 176 1.7 6.1 0.00 0.00 0.00 68 1009.1
20260509190215 85 166 2.6 6.1 0.00 0.00 0.00 70 1009.3
20260509184714 85 155 2.6 6.1 0.00 0.00 0.00 69 1009.5
20260509183213 84 212 0.9 4.3 0.00 0.00 0.00 71 1009.8
20260509183104 82 212 0.0 6.1 0.00 0.00 0.00 73 1010.0
20260509180918 83 210 0.9 4.3 0.00 0.00 0.00 71 1010.1
20260509174712 83 161 1.7 6.1 0.00 0.00 0.00 73 1010.4
20260509173213 82 330 1.7 7.8 0.00 0.00 0.00 72 1010.4
20260509171711 82 157 0.9 4.3 0.00 0.00 0.00 74 1010.3
20260509170213 83 157 2.6 4.3 0.00 0.00 0.00 74 1010.2
20260509164711 81 164 0.0 4.3 0.00 0.00 0.00 78 1010.2
20260509163211 80 164 1.7 4.3 0.00 0.00 0.00 80 1010.2
20260509161710 79 117 0.0 4.3 0.00 0.00 0.00 80 1010.4
20260509160211 79 145 0.9 2.6 0.00 0.00 0.00 82 1010.6
20260509155404 78 145 1.7 2.6 0.00 0.00 0.00 83 1010.7
20260509153210 78 140 1.7 2.6 0.00 0.00 0.00 86 1010.8
20260509151709 77 140 0.0 2.6 0.00 0.00 0.00 87 1010.8
20260509150907 76 140 1.7 4.3 0.00 0.00 0.00 88 1010.6
20260509144708 76 140 0.0 2.6 0.00 0.00 0.00 89 1010.5
20260509143209 75 140 0.0 2.6 0.00 0.00 0.00 89 1010.4
20260509141709 75 140 0.9 1.7 0.00 0.00 0.00 90 1010.2
20260509140209 75 140 1.7 2.6 0.00 0.00 0.00 90 1010.0
20260509134707 75 140 0.9 2.6 0.00 0.00 0.00 90 1010.3
20260509133210 74 140 0.0 1.7 0.00 0.00 0.00 91 1010.6
20260509131707 74 140 0.9 1.7 0.00 0.00 0.00 91 1010.6
20260509130207 74 140 0.0 1.7 0.00 0.00 0.00 91 1010.6
20260509124704 73 140 0.9 1.7 0.00 0.00 0.00 91 1010.7
20260509123213 73 140 0.9 2.6 0.00 0.00 0.00 91 1010.7
20260509122401 73 140 0.0 4.3 0.00 0.00 0.00 91 1010.5
20260509120206 73 140 1.7 2.6 0.00 0.00 0.00 91 1010.1
20260509114704 73 140 0.0 1.7 0.00 0.00 0.00 91 1010.0
20260509113854 73 140 0.0 1.7 0.00 0.00 0.00 91 1009.8
20260509111704 73 140 0.0 2.6 0.00 0.00 0.00 91 1009.8
20260509110208 73 140 0.9 2.6 0.00 0.00 0.00 90 1010.2
20260509104703 73 140 1.7 4.3 0.00 0.00 0.00 91 1010.4
20260509103208 73 140 1.7 2.6 0.00 0.00 0.00 90 1010.3
20260509101705 73 140 1.7 2.6 0.00 0.00 0.00 90 1009.9
20260509100205 73 140 0.9 4.3 0.00 0.00 0.00 90 1009.3
20260509094703 73 141 0.0 1.7 0.00 0.00 0.00 90 1009.2
20260509093206 73 141 0.0 1.7 0.00 0.00 0.00 90 1009.6
20260509091703 73 141 0.0 1.7 0.00 0.00 0.00 90 1009.8
20260509090918 73 141 0.0 0.0 0.00 0.00 0.00 90 1009.9
20260509084703 73 141 0.0 1.7 0.00 0.00 0.00 90 1010.0
20260509083855 73 141 0.0 2.6 0.00 0.00 0.00 90 1010.0
20260509081704 73 141 0.0 1.7 0.00 0.00 0.00 90 1009.9
20260509080205 73 141 0.0 2.6 0.00 0.00 0.00 90 1009.8
20260509074703 73 141 0.9 2.6 0.00 0.00 0.00 90 1009.7
20260509073912 73 141 0.9 2.6 0.00 0.00 0.00 90 1009.7
20260509071704 73 141 0.0 2.6 0.00 0.00 0.00 90 1010.0
20260509070205 73 141 1.7 2.6 0.00 0.00 0.00 90 1010.0
20260509065403 73 141 0.0 1.7 0.00 0.00 0.00 90 1010.1
20260509063205 73 141 0.0 1.7 0.00 0.00 0.00 90 1010.1
20260509061704 73 141 0.9 2.6 0.00 0.00 0.00 90 1010.3
20260509060205 73 137 0.0 1.7 0.00 0.00 0.00 90 1010.4
20260509054705 73 137 0.9 1.7 0.00 0.00 0.00 90 1010.5
20260509053204 73 137 0.9 1.7 0.00 0.00 0.00 90 1010.6
20260509051704 73 137 0.0 2.6 0.00 0.00 0.00 90 1010.5
20260509050206 72 137 1.7 2.6 0.00 0.00 0.00 90 1010.4
20260509044703 72 137 1.7 4.3 0.00 0.00 0.00 90 1010.6
20260509043205 72 127 0.9 4.3 0.00 0.00 0.00 90 1010.4
20260509041704 72 127 2.6 2.6 0.00 0.00 0.00 90 1010.4
20260509040205 72 127 1.7 6.1 0.00 0.00 0.00 89 1010.5
20260509034704 72 127 0.9 4.3 0.00 0.00 0.00 89 1010.3
20260509033205 72 127 1.7 6.1 0.00 0.00 0.00 89 1010.3
20260509031703 72 127 1.7 4.3 0.00 0.00 0.00 89 1010.2
20260509030205 72 127 2.6 6.1 0.00 0.00 0.00 89 1010.0
20260509030124 72 123 1.7 6.1 0.00 0.00 0.00 89 1009.9
20260509023205 72 130 0.9 4.3 0.00 0.00 0.00 89 1009.8
20260509021703 72 130 2.6 11.3 0.00 0.00 0.00 89 1009.5
20260509020205 73 124 0.9 4.3 0.00 0.00 0.00 89 1009.8
20260509014703 73 124 0.9 2.6 0.00 0.00 0.00 89 1009.7
20260509013206 73 124 1.7 2.6 0.00 0.00 0.00 88 1009.6
20260509011703 73 124 2.6 6.1 0.00 0.00 0.00 88 1009.3
20260509010205 73 124 2.6 4.3 0.00 0.00 0.00 88 1009.3
20260509004704 74 124 1.7 6.1 0.00 0.00 0.00 87 1009.2
20260509003204 74 124 2.6 4.3 0.00 0.00 0.00 86 1009.4
20260509001703 74 124 1.7 6.1 0.00 0.00 0.00 85 1009.6
20260509000204 75 124 3.5 6.1 0.00 0.00 0.00 84 1009.4
20260508234704 75 141 2.6 4.3 0.00 0.00 0.00 83 1009.5
20260508233205 76 113 1.7 4.3 0.00 0.00 0.00 82 1009.6
20260508231704 76 114 1.7 6.1 0.00 0.00 0.00 81 1009.6
20260508230204 76 79 1.7 4.3 0.00 0.00 0.00 81 1009.4
20260508224703 76 114 2.6 7.8 0.00 0.00 0.00 80 1009.4
20260508223205 77 121 1.7 4.3 0.00 0.00 0.00 80 1009.3
20260508221703 77 109 2.6 4.3 0.00 0.00 0.00 79 1009.5
20260508220205 77 106 1.7 4.3 0.00 0.00 0.00 79 1009.5
20260508214703 77 106 1.7 4.3 0.00 0.00 0.00 79 1009.5
20260508213206 77 106 2.6 4.3 0.00 0.00 0.00 78 1009.8
20260508211703 78 102 1.7 4.3 0.00 0.00 0.00 77 1009.8
20260508210205 78 102 0.9 4.3 0.00 0.00 0.00 77 1009.7
20260508205353 78 79 1.7 4.3 0.00 0.00 0.00 78 1009.9
20260508203205 78 76 1.7 6.1 0.00 0.00 0.00 77 1009.9
20260508201704 77 134 0.0 6.1 0.00 0.00 0.00 76 1010.3
20260508200204 77 117 1.7 6.1 0.00 0.00 0.00 77 1010.6
20260508194704 78 65 1.7 6.1 0.00 0.00 0.00 76 1010.4
20260508193901 78 158 2.6 4.3 0.00 0.00 0.00 76 1010.8